AFR33J FMEP-FMEP

Flight info

Callsign AFR33J
Flight time 0h 12m
Altitude 3000
Route DCT
Aircraft P28B/L-SDGRY/S

Departure

Time 2026-04-16 04:44
Airport Saint-Pierre Pierrefonds Airport (FMEP)

Arrival

Time 2026-04-16 04:57
Airport Saint-Pierre Pierrefonds Airport (FMEP)
Time Latitude Longitude Altitude Speed Heading
2026-04-16 04:37 -21.32010 55.42663 67 ft 0 kts 220°
2026-04-16 04:41 -21.32045 55.42657 67 ft 11 kts 199°
2026-04-16 04:41 -21.32119 55.42598 64 ft 15 kts 218°
2026-04-16 04:42 -21.32114 55.42502 62 ft 16 kts 308°
2026-04-16 04:42 -21.32024 55.42384 62 ft 25 kts 311°
2026-04-16 04:42 -21.31911 55.42240 58 ft 22 kts 325°
2026-04-16 04:42 -21.31900 55.42210 61 ft 11 kts 116°
2026-04-16 04:43 -21.31951 55.42291 61 ft 24 kts 125°
2026-04-16 04:43 -21.32165 55.42570 66 ft 70 kts 127°
2026-04-16 04:43 -21.32506 55.43035 171 ft 85 kts 119°
2026-04-16 04:43 -21.32866 55.43552 336 ft 92 kts 126°
2026-04-16 04:44 -21.33321 55.44066 500 ft 98 kts 130°
2026-04-16 04:44 -21.33802 55.44608 635 ft 101 kts 127°
2026-04-16 04:44 -21.34347 55.45060 757 ft 109 kts 178°
2026-04-16 04:44 -21.34999 55.44647 880 ft 113 kts 218°
2026-04-16 04:45 -21.35598 55.44100 1025 ft 114 kts 222°
2026-04-16 04:45 -21.36137 55.43473 1105 ft 119 kts 245°
2026-04-16 04:45 -21.35878 55.42659 1101 ft 125 kts 307°
2026-04-16 04:45 -21.35339 55.41930 1114 ft 125 kts 314°
2026-04-16 04:46 -21.34812 55.41176 1107 ft 127 kts 303°
2026-04-16 04:46 -21.34356 55.40378 1084 ft 122 kts 299°
2026-04-16 04:46 -21.33904 55.39683 1066 ft 113 kts 310°
2026-04-16 04:46 -21.33445 55.39064 1079 ft 102 kts 311°
2026-04-16 04:47 -21.32985 55.38510 1079 ft 97 kts 313°
2026-04-16 04:47 -21.32560 55.37962 1083 ft 94 kts 306°
2026-04-16 04:47 -21.32202 55.37362 1027 ft 97 kts 317°
2026-04-16 04:47 -21.31595 55.37432 913 ft 99 kts 39°
2026-04-16 04:48 -21.31074 55.37948 799 ft 103 kts 45°
2026-04-16 04:48 -21.30521 55.38430 678 ft 102 kts 41°
2026-04-16 04:48 -21.30012 55.38950 582 ft 99 kts 39°
2026-04-16 04:48 -21.29944 55.39553 429 ft 104 kts 123°
2026-04-16 04:49 -21.30362 55.40155 306 ft 89 kts 123°
2026-04-16 04:49 -21.30708 55.40659 266 ft 79 kts 126°
2026-04-16 04:49 -21.31039 55.41098 215 ft 72 kts 126°
2026-04-16 04:49 -21.31354 55.41505 104 ft 70 kts 122°
2026-04-16 04:50 -21.31637 55.41880 63 ft 57 kts 129°
2026-04-16 04:50 -21.31951 55.42270 110 ft 79 kts 129°
2026-04-16 04:50 -21.32312 55.42773 222 ft 91 kts 123°
2026-04-16 04:50 -21.32718 55.43328 378 ft 99 kts 127°
2026-04-16 04:51 -21.33216 55.43870 466 ft 110 kts 133°
2026-04-16 04:51 -21.33779 55.44468 532 ft 112 kts 128°
2026-04-16 04:51 -21.34274 55.45105 651 ft 112 kts 123°
2026-04-16 04:51 -21.34300 55.45821 729 ft 107 kts 38°
2026-04-16 04:52 -21.33698 55.46278 859 ft 106 kts 32°
2026-04-16 04:52 -21.33090 55.46733 973 ft 108 kts 43°
2026-04-16 04:52 -21.32488 55.47227 1044 ft 112 kts 11°
2026-04-16 04:52 -21.31898 55.46727 1072 ft 120 kts 305°
2026-04-16 04:53 -21.31402 55.45992 1085 ft 122 kts 309°
2026-04-16 04:53 -21.30862 55.45259 1090 ft 126 kts 308°
2026-04-16 04:53 -21.30324 55.44514 1105 ft 127 kts 309°
2026-04-16 04:53 -21.29805 55.43751 1115 ft 123 kts 307°
2026-04-16 04:54 -21.29298 55.43056 1126 ft 112 kts 310°
2026-04-16 04:54 -21.28802 55.42452 1086 ft 105 kts 313°
2026-04-16 04:54 -21.28334 55.41864 1055 ft 103 kts 311°
2026-04-16 04:54 -21.27904 55.41257 1044 ft 100 kts 301°
2026-04-16 04:55 -21.27976 55.40545 942 ft 108 kts 226°
2026-04-16 04:55 -21.28564 55.40008 766 ft 111 kts 224°
2026-04-16 04:55 -21.29144 55.39505 662 ft 109 kts 220°
2026-04-16 04:55 -21.29773 55.39367 608 ft 94 kts 132°
2026-04-16 04:56 -21.30171 55.39916 450 ft 88 kts 124°
2026-04-16 04:56 -21.30538 55.40422 352 ft 84 kts 124°
2026-04-16 04:56 -21.30880 55.40900 267 ft 78 kts 122°
2026-04-16 04:56 -21.31214 55.41330 148 ft 71 kts 124°
2026-04-16 04:57 -21.31519 55.41721 66 ft 65 kts 126°
2026-04-16 04:57 -21.31762 55.42041 62 ft 47 kts 129°
2026-04-16 04:57 -21.31941 55.42276 61 ft 35 kts 129°
2026-04-16 04:57 -21.32077 55.42455 62 ft 27 kts 128°
2026-04-16 04:58 -21.32143 55.42571 62 ft 15 kts 64°
2026-04-16 04:58 -21.32089 55.42625 66 ft 7 kts 40°
2026-04-16 04:58 -21.32058 55.42650 67 ft 6 kts 42°
2026-04-16 04:58 -21.32036 55.42695 66 ft 8 kts 41°
2026-04-16 04:59 -21.32002 55.42676 65 ft 6 kts 265°
2026-04-16 04:59 -21.32018 55.42656 64 ft 0 kts 214°